Location: Boiro
(42.6475°N, 8.8834°W)
Time: 17:36:43
(UTC+01:00)

A-11 Canister half - Pass Details

Date: 04 December 2021
Orbit: 1516 x 1684 km, 47.2° (Epoch: 26 January)

Event Time Altitude Azimuth Distance (km) Brightness Sun altitude
Rises 14:24:52 0° 296° (WNW) 4,893 11.5 23.6°
Reaches altitude 10° 14:28:01 10° 293° (WNW) 3,919 11.1 23.5°
Maximum altitude 14:37:58 66° 215° (SW) 1,810 10.3 22.9°
Drops below altitude 10° 14:47:58 10° 136° (SE) 3,933 11.6 22.3°
Sets 14:51:08 0° 133° (SE) 4,910 11.9 22.1°
